User: anonymous   Login
Location: *
(1.3500°S, 147.5000°W)
Time: 10:29:46
(UTC+00:00)
Language:

Cosmos 1908 - Orbit

View from above orbital plane
View from above orbital plane
View from above satellite
View from above satellite

Ground track
Ground track

The orbit data is extracted from the following two-line orbital elements,

1 18748U 88001A   20184.87567194 +.00000598 +00000-0 +30328-4 0  9999
2 18748 082.4721 042.7367 0013804 013.3722 346.7873 15.14929339773750
Epoch (UTC): 02 July 2020 21:00:58
Eccentricity: 0.0013804
inclination: 82.4721°
perigee height: 511 km
apogee height: 531 km
right ascension of ascending node: 42.7367°
argument of perigee: 13.3722°
revolutions per day: 15.14929339
mean anomaly at epoch: 346.7873°
orbit number at epoch: 77375

The dashed part of the orbit path shows where the satellite is in the earth's shadow,  

DLR